This is the latest recevied weather packets stored in our database for station/object SV2RIM-2. If no packets are shown the sender has not sent any weather packets the latest 10 day(s).
| Time | Temp. | Humidity | Pressure | Rain* | Wind** | Luminosity | Snow |
|---|---|---|---|---|---|---|---|
| 1788046218 | 23.33° C | 65% | 1017 hPa | - | - | - | - |
| 1788045618 | 23.33° C | 66% | 1017.1 hPa | - | - | - | - |
| 1788045018 | 22.78° C | 67% | 1017.2 hPa | - | - | - | - |
| 1788044419 | 23.33° C | 66% | 1017.3 hPa | - | - | - | - |
| 1788043818 | 23.89° C | 65% | 1017.4 hPa | - | - | - | - |
| 1788043219 | 23.89° C | 64% | 1017.4 hPa | - | - | - | - |
| 1788042619 | 23.89° C | 64% | 1017.6 hPa | - | - | - | - |
| 1788042019 | 23.89° C | 64% | 1017.6 hPa | - | - | - | - |
| 1788041418 | 23.89° C | 63% | 1017.5 hPa | - | - | - | - |
| 1788040819 | 23.89° C | 63% | 1017.5 hPa | - | - | - | - |
| 1788040218 | 23.89° C | 63% | 1017.5 hPa | - | - | - | - |
| 1788039619 | 23.33° C | 63% | 1017.6 hPa | - | - | - | - |
| 1788039019 | 23.89° C | 63% | 1017.6 hPa | - | - | - | - |
| 1788038419 | 23.89° C | 62% | 1017.7 hPa | - | - | - | - |
| 1788037819 | 23.89° C | 61% | 1017.6 hPa | - | - | - | - |
| 1788037218 | 23.89° C | 61% | 1017.5 hPa | - | - | - | - |
| 1788036619 | 23.89° C | 60% | 1017.3 hPa | - | - | - | - |
| 1788036019 | 24.44° C | 60% | 1017.2 hPa | - | - | - | - |
| 1788035419 | 24.44° C | 59% | 1017.1 hPa | - | - | - | - |
| 1788034819 | 24.44° C | 59% | 1016.8 hPa | - | - | - | - |
| 1788034219 | 24.44° C | 58% | 1016.5 hPa | - | - | - | - |
| 1788033619 | 25° C | 58% | 1016.2 hPa | - | - | - | - |
| 1788033019 | 25° C | 57% | 1016.2 hPa | - | - | - | - |
| 1788032419 | 25° C | 57% | 1016.3 hPa | - | - | - | - |
| 1788031819 | 25° C | 56% | 1016.2 hPa | - | - | - | - |
* Rain since midnight (hover to see other rain measurements)
** Current wind speed in m/s (hover to see current wind gust speed)